Location: Bothwell
(42.3833°S, 147.0000°E)
Time: 01:20:18
(UTC+10:00)

Envisat - Pass Details

Date: 03 March 2024
Orbit: 762 x 764 km, 98.3° (Epoch: 24 April)

Event Time Altitude Azimuth Distance (km) Brightness Sun altitude
Exits shadow 02:18:09 15° 122° (ESE) 2,005 5.5 -39.2°
Drops below altitude 10° 02:20:47 10° 153° (SSE) 2,331 6.2 -39.1°
Sets 02:24:05 0° 175° (S) 3,267 7.1 -38.9°
